| time (UTC) | temp C | wind direction | speed KPH | gust KPH | rain 1hr cm | rain 24hr cm | rain mn cm | humidity % | barometer mb |
| 20260507095823 | 17 | 265 | 0.0 | 1.6 | 0.00 | 0.00 | 0.00 | 48 | 1012.0 |
| 20260507095322 | 17 | 265 | 0.0 | 3.2 | 0.00 | 0.00 | 0.00 | 49 | 1012.0 |
| 20260507094851 | 17 | 265 | 0.0 | 4.8 | 0.00 | 0.00 | 0.00 | 49 | 1012.2 |
| 20260507094319 | 17 | 265 | 3.2 | 4.8 | 0.00 | 0.00 | 0.00 | 48 | 1012.3 |
| 20260507093821 | 17 | 265 | 0.0 | 4.8 | 0.00 | 0.00 | 0.00 | 47 | 1012.2 |
| 20260507093358 | 17 | 265 | 3.2 | 4.8 | 0.00 | 0.00 | 0.00 | 47 | 1012.2 |
| 20260507092832 | 17 | 236 | 0.0 | 3.2 | 0.00 | 0.00 | 0.00 | 47 | 1012.3 |
| 20260507092318 | 17 | 236 | 0.0 | 0.0 | 0.00 | 0.00 | 0.00 | 47 | 1012.3 |
| 20260507091820 | 17 | 236 | 0.0 | 0.0 | 0.00 | 0.00 | 0.00 | 47 | 1012.4 |
| 20260507091405 | 18 | 236 | 0.0 | 3.2 | 0.00 | 0.00 | 0.00 | 46 | 1012.4 |
| 20260507090843 | 18 | 236 | 0.0 | 3.2 | 0.00 | 0.00 | 0.00 | 46 | 1012.5 |
| 20260507090326 | 18 | 236 | 1.6 | 3.2 | 0.00 | 0.00 | 0.00 | 45 | 1012.5 |
| 20260507085825 | 18 | 236 | 0.0 | 3.2 | 0.00 | 0.00 | 0.00 | 45 | 1012.6 |
| 20260507085329 | 18 | 236 | 1.6 | 6.4 | 0.00 | 0.00 | 0.00 | 45 | 1012.6 |
| 20260507084834 | 18 | 236 | 3.2 | 6.4 | 0.00 | 0.00 | 0.00 | 46 | 1012.7 |
| 20260507084346 | 18 | 236 | 3.2 | 4.8 | 0.00 | 0.00 | 0.00 | 46 | 1012.8 |
| 20260507083829 | 18 | 255 | 1.6 | 3.2 | 0.00 | 0.00 | 0.00 | 46 | 1012.8 |
| 20260507083334 | 18 | 255 | 1.6 | 3.2 | 0.00 | 0.00 | 0.00 | 46 | 1012.9 |
| 20260507082824 | 18 | 26 | 0.0 | 1.6 | 0.00 | 0.00 | 0.00 | 46 | 1012.9 |
| 20260507082321 | 18 | 26 | 0.0 | 0.0 | 0.00 | 0.00 | 0.00 | 47 | 1012.9 |
| 20260507081826 | 18 | 26 | 0.0 | 0.0 | 0.00 | 0.00 | 0.00 | 47 | 1012.9 |
| 20260507081328 | 18 | 26 | 0.0 | 0.0 | 0.00 | 0.00 | 0.00 | 47 | 1013.0 |
| 20260507080847 | 19 | 26 | 0.0 | 0.0 | 0.00 | 0.00 | 0.00 | 46 | 1013.0 |
| 20260507080320 | 19 | 26 | 0.0 | 0.0 | 0.00 | 0.00 | 0.00 | 46 | 1013.0 |
| 20260507075828 | 19 | 26 | 0.0 | 0.0 | 0.00 | 0.00 | 0.00 | 46 | 1012.9 |
| 20260507075333 | 20 | 26 | 0.0 | 3.2 | 0.00 | 0.00 | 0.00 | 45 | 1012.9 |
| 20260507074835 | 20 | 26 | 0.0 | 3.2 | 0.00 | 0.00 | 0.00 | 45 | 1012.9 |
| 20260507074341 | 20 | 253 | 0.0 | 1.6 | 0.00 | 0.00 | 0.00 | 44 | 1012.9 |
| 20260507073844 | 20 | 253 | 0.0 | 4.8 | 0.00 | 0.00 | 0.00 | 43 | 1012.8 |
| 20260507073326 | 20 | 253 | 1.6 | 4.8 | 0.00 | 0.00 | 0.00 | 44 | 1012.9 |
| 20260507072845 | 20 | 253 | 3.2 | 4.8 | 0.00 | 0.00 | 0.00 | 44 | 1012.9 |
| 20260507072348 | 20 | 253 | 0.0 | 3.2 | 0.00 | 0.00 | 0.00 | 43 | 1012.9 |
| 20260507071829 | 20 | 253 | 0.0 | 3.2 | 0.00 | 0.00 | 0.00 | 43 | 1012.9 |
| 20260507071331 | 20 | 253 | 1.6 | 3.2 | 0.00 | 0.00 | 0.00 | 43 | 1012.9 |
| 20260507070822 | 20 | 253 | 1.6 | 3.2 | 0.00 | 0.00 | 0.00 | 43 | 1013.0 |
| 20260507070325 | 20 | 253 | 0.0 | 1.6 | 0.00 | 0.00 | 0.00 | 43 | 1013.0 |
| 20260507065829 | 21 | 253 | 0.0 | 4.8 | 0.00 | 0.00 | 0.00 | 43 | 1013.0 |
| 20260507065336 | 21 | 253 | 1.6 | 4.8 | 0.00 | 0.00 | 0.00 | 44 | 1013.0 |
| 20260507064825 | 21 | 160 | 0.0 | 3.2 | 0.00 | 0.00 | 0.00 | 43 | 1012.9 |
| 20260507064329 | 21 | 160 | 1.6 | 3.2 | 0.00 | 0.00 | 0.00 | 43 | 1012.9 |
| 20260507063815 | 21 | 195 | 1.6 | 3.2 | 0.00 | 0.00 | 0.00 | 44 | 1012.9 |
| 20260507063334 | 21 | 195 | 0.0 | 3.2 | 0.00 | 0.00 | 0.00 | 44 | 1012.8 |
| 20260507062835 | 21 | 195 | 0.0 | 0.0 | 0.00 | 0.00 | 0.00 | 43 | 1012.9 |
| 20260507062350 | 21 | 195 | 0.0 | 4.8 | 0.00 | 0.00 | 0.00 | 42 | 1012.8 |
| 20260507061851 | 22 | 195 | 1.6 | 4.8 | 0.00 | 0.00 | 0.00 | 41 | 1012.8 |
| 20260507061342 | 22 | 195 | 1.6 | 4.8 | 0.00 | 0.00 | 0.00 | 41 | 1012.8 |
| 20260507060832 | 22 | 195 | 0.0 | 4.8 | 0.00 | 0.00 | 0.00 | 41 | 1012.8 |
| 20260507060343 | 22 | 195 | 0.0 | 4.8 | 0.00 | 0.00 | 0.00 | 41 | 1012.8 |
| 20260507055826 | 22 | 195 | 1.6 | 3.2 | 0.00 | 0.00 | 0.00 | 40 | 1012.8 |
| 20260507055322 | 22 | 195 | 1.6 | 3.2 | 0.00 | 0.00 | 0.00 | 39 | 1012.9 |
| 20260507054833 | 22 | 195 | 0.0 | 3.2 | 0.00 | 0.00 | 0.00 | 39 | 1012.8 |
| 20260507054350 | 22 | 195 | 0.0 | 3.2 | 0.00 | 0.00 | 0.00 | 38 | 1012.9 |
| 20260507053837 | 22 | 195 | 1.6 | 3.2 | 0.00 | 0.00 | 0.00 | 37 | 1012.9 |
| 20260507053325 | 23 | 195 | 0.0 | 1.6 | 0.00 | 0.00 | 0.00 | 36 | 1012.9 |
| 20260507052831 | 23 | 195 | 0.0 | 3.2 | 0.00 | 0.00 | 0.00 | 35 | 1012.9 |
| 20260507052319 | 23 | 195 | 0.0 | 6.4 | 0.00 | 0.00 | 0.00 | 35 | 1012.9 |
| 20260507051840 | 23 | 195 | 1.6 | 6.4 | 0.00 | 0.00 | 0.00 | 34 | 1012.9 |
| 20260507051348 | 23 | 138 | 1.6 | 4.8 | 0.00 | 0.00 | 0.00 | 35 | 1013.0 |
| 20260507050843 | 23 | 138 | 1.6 | 6.4 | 0.00 | 0.00 | 0.00 | 36 | 1013.0 |
| 20260507050332 | 24 | 138 | 3.2 | 6.4 | 0.00 | 0.00 | 0.00 | 35 | 1013.0 |
| 20260507045842 | 24 | 138 | 3.2 | 4.8 | 0.00 | 0.00 | 0.00 | 38 | 1013.0 |
| 20260507045340 | 24 | 138 | 0.0 | 0.0 | 0.00 | 0.00 | 0.00 | 37 | 1013.0 |
| 20260507044824 | 24 | 138 | 0.0 | 0.0 | 0.00 | 0.00 | 0.00 | 37 | 1013.0 |
| 20260507044339 | 25 | 138 | 0.0 | 3.2 | 0.00 | 0.00 | 0.00 | 35 | 1013.0 |
| 20260507043830 | 25 | 138 | 0.0 | 4.8 | 0.00 | 0.00 | 0.00 | 34 | 1013.0 |
| 20260507043340 | 25 | 138 | 3.2 | 6.4 | 0.00 | 0.00 | 0.00 | 32 | 1013.0 |
| 20260507042820 | 25 | 138 | 0.0 | 6.4 | 0.00 | 0.00 | 0.00 | 32 | 1013.0 |
| 20260507042325 | 25 | 91 | 3.2 | 6.4 | 0.00 | 0.00 | 0.00 | 29 | 1013.0 |
| 20260507041823 | 25 | 140 | 1.6 | 8.0 | 0.00 | 0.00 | 0.00 | 29 | 1013.0 |
| 20260507041325 | 25 | 140 | 0.0 | 8.0 | 0.00 | 0.00 | 0.00 | 30 | 1012.9 |
| 20260507040842 | 25 | 15 | 1.6 | 4.8 | 0.00 | 0.00 | 0.00 | 31 | 1012.9 |
| 20260507040339 | 26 | 291 | 0.0 | 4.8 | 0.00 | 0.00 | 0.00 | 31 | 1012.9 |
| 20260507035820 | 26 | 16 | 0.0 | 0.0 | 0.00 | 0.00 | 0.00 | 27 | 1012.9 |
| 20260507035343 | 26 | 16 | 0.0 | 0.0 | 0.00 | 0.00 | 0.00 | 26 | 1012.8 |
| 20260507034818 | 26 | 16 | 0.0 | 1.6 | 0.00 | 0.00 | 0.00 | 25 | 1012.8 |
| 20260507034335 | 26 | 16 | 0.0 | 6.4 | 0.00 | 0.00 | 0.00 | 25 | 1012.7 |
| 20260507033834 | 26 | 16 | 1.6 | 9.7 | 0.00 | 0.00 | 0.00 | 26 | 1012.7 |
| 20260507033320 | 27 | 355 | 6.4 | 9.7 | 0.00 | 0.00 | 0.00 | 30 | 1012.6 |
| 20260507032820 | 27 | 319 | 6.4 | 9.7 | 0.00 | 0.00 | 0.00 | 33 | 1012.5 |
| 20260507032316 | 27 | 315 | 3.2 | 12.9 | 0.00 | 0.00 | 0.00 | 29 | 1012.5 |
| 20260507031832 | 27 | 281 | 6.4 | 12.9 | 0.00 | 0.00 | 0.00 | 33 | 1012.4 |
| 20260507031340 | 27 | 311 | 6.4 | 12.9 | 0.00 | 0.00 | 0.00 | 33 | 1012.3 |
| 20260507030834 | 27 | 323 | 4.8 | 11.3 | 0.00 | 0.00 | 0.00 | 33 | 1012.3 |
| 20260507030325 | 27 | 299 | 6.4 | 12.9 | 0.00 | 0.00 | 0.00 | 33 | 1012.2 |
| 20260507025818 | 27 | 305 | 4.8 | 12.9 | 0.00 | 0.00 | 0.00 | 34 | 1012.2 |
| 20260507025325 | 27 | 249 | 8.0 | 14.5 | 0.00 | 0.00 | 0.00 | 34 | 1012.1 |
| 20260507024819 | 27 | 282 | 9.7 | 14.5 | 0.00 | 0.00 | 0.00 | 34 | 1012.1 |
| 20260507024330 | 27 | 283 | 8.0 | 12.9 | 0.00 | 0.00 | 0.00 | 33 | 1012.0 |
| 20260507023850 | 27 | 303 | 6.4 | 12.9 | 0.00 | 0.00 | 0.00 | 32 | 1012.0 |
| 20260507023334 | 27 | 274 | 4.8 | 9.7 | 0.00 | 0.00 | 0.00 | 32 | 1012.0 |
| 20260507022833 | 27 | 339 | 4.8 | 8.0 | 0.00 | 0.00 | 0.00 | 30 | 1011.9 |
| 20260507022335 | 27 | 323 | 1.6 | 4.8 | 0.00 | 0.00 | 0.00 | 21 | 1011.9 |
| 20260507021824 | 28 | 130 | 1.6 | 4.8 | 0.00 | 0.00 | 0.00 | 21 | 1011.8 |
| 20260507021326 | 28 | 80 | 0.0 | 3.2 | 0.00 | 0.00 | 0.00 | 21 | 1011.8 |
| 20260507020824 | 28 | 80 | 1.6 | 3.2 | 0.00 | 0.00 | 0.00 | 20 | 1011.8 |
| 20260507020327 | 28 | 80 | 1.6 | 4.8 | 0.00 | 0.00 | 0.00 | 20 | 1011.8 |
| 20260507015829 | 28 | 80 | 1.6 | 6.4 | 0.00 | 0.00 | 0.00 | 20 | 1011.7 |
| 20260507015346 | 28 | 72 | 1.6 | 8.0 | 0.00 | 0.00 | 0.00 | 20 | 1011.7 |
| 20260507014820 | 29 | 90 | 1.6 | 11.3 | 0.00 | 0.00 | 0.00 | 20 | 1011.7 |
| 20260507014327 | 29 | 103 | 6.4 | 11.3 | 0.00 | 0.00 | 0.00 | 19 | 1011.6 |
| 20260507013901 | 29 | 81 | 4.8 | 11.3 | 0.00 | 0.00 | 0.00 | 19 | 1011.6 |
| 20260507013329 | 30 | 96 | 6.4 | 8.0 | 0.00 | 0.00 | 0.00 | 19 | 1011.6 |
| 20260507012836 | 30 | 110 | 3.2 | 11.3 | 0.00 | 0.00 | 0.00 | 19 | 1011.6 |
| 20260507012317 | 30 | 114 | 4.8 | 11.3 | 0.00 | 0.00 | 0.00 | 19 | 1011.6 |
| 20260507011839 | 30 | 112 | 4.8 | 9.7 | 0.00 | 0.00 | 0.00 | 19 | 1011.6 |
| 20260507011322 | 30 | 128 | 4.8 | 9.7 | 0.00 | 0.00 | 0.00 | 19 | 1011.5 |
| 20260507010816 | 30 | 91 | 3.2 | 11.3 | 0.00 | 0.00 | 0.00 | 19 | 1011.5 |
| 20260507010318 | 30 | 185 | 6.4 | 11.3 | 0.00 | 0.00 | 0.00 | 19 | 1011.6 |
| 20260507005821 | 30 | 179 | 3.2 | 9.7 | 0.00 | 0.00 | 0.00 | 19 | 1011.6 |
| 20260507005326 | 30 | 65 | 4.8 | 9.7 | 0.00 | 0.00 | 0.00 | 19 | 1011.6 |
| 20260507004817 | 30 | 97 | 4.8 | 11.3 | 0.00 | 0.00 | 0.00 | 19 | 1011.6 |
| 20260507004329 | 30 | 84 | 4.8 | 11.3 | 0.00 | 0.00 | 0.00 | 19 | 1011.6 |
| 20260507003851 | 30 | 125 | 3.2 | 9.7 | 0.00 | 0.00 | 0.00 | 19 | 1011.6 |
| 20260507003333 | 30 | 174 | 3.2 | 12.9 | 0.00 | 0.00 | 0.00 | 19 | 1011.6 |
| 20260507002835 | 30 | 132 | 4.8 | 14.5 | 0.00 | 0.00 | 0.00 | 19 | 1011.5 |
| 20260507002323 | 30 | 131 | 6.4 | 14.5 | 0.00 | 0.00 | 0.00 | 19 | 1011.4 |
| 20260507001822 | 30 | 89 | 6.4 | 12.9 | 0.00 | 0.00 | 0.00 | 19 | 1011.6 |
| 20260507001330 | 30 | 148 | 1.6 | 11.3 | 0.00 | 0.00 | 0.00 | 19 | 1011.5 |
| 20260507000821 | 30 | 62 | 3.2 | 14.5 | 0.00 | 0.00 | 0.00 | 19 | 1011.5 |
| 20260507000328 | 30 | 94 | 6.4 | 14.5 | 0.00 | 0.00 | 0.00 | 19 | 1011.5 |
| 20260506235832 | 30 | 113 | 9.7 | 14.5 | 0.00 | 0.00 | 0.00 | 19 | 1011.5 |
| 20260506235332 | 30 | 90 | 4.8 | 12.9 | 0.00 | 0.00 | 0.00 | 19 | 1011.4 |
| 20260506234819 | 30 | 103 | 3.2 | 11.3 | 0.00 | 0.00 | 0.00 | 19 | 1011.5 |
| 20260506234325 | 31 | 92 | 4.8 | 9.7 | 0.00 | 0.00 | 0.00 | 18 | 1011.5 |
| 20260506233833 | 31 | 355 | 1.6 | 9.7 | 0.00 | 0.00 | 0.00 | 19 | 1011.5 |
| 20260506233352 | 30 | 76 | 3.2 | 9.7 | 0.00 | 0.00 | 0.00 | 19 | 1011.6 |
| 20260506232854 | 30 | 57 | 4.8 | 11.3 | 0.00 | 0.00 | 0.00 | 19 | 1011.6 |
| 20260506232336 | 30 | 32 | 4.8 | 12.9 | 0.00 | 0.00 | 0.00 | 19 | 1011.7 |
| 20260506231829 | 31 | 59 | 6.4 | 12.9 | 0.00 | 0.00 | 0.00 | 19 | 1011.7 |
| 20260506231338 | 31 | 139 | 4.8 | 11.3 | 0.00 | 0.00 | 0.00 | 19 | 1011.8 |
| 20260506230840 | 30 | 148 | 6.4 | 12.9 | 0.00 | 0.00 | 0.00 | 19 | 1011.8 |
| 20260506230318 | 30 | 202 | 8.0 | 12.9 | 0.00 | 0.00 | 0.00 | 19 | 1011.9 |
| 20260506225828 | 30 | 70 | 6.4 | 16.1 | 0.00 | 0.00 | 0.00 | 19 | 1011.9 |
| 20260506225400 | 30 | 90 | 6.4 | 16.1 | 0.00 | 0.00 | 0.00 | 19 | 1012.0 |
| 20260506224821 | 30 | 95 | 4.8 | 16.1 | 0.00 | 0.00 | 0.00 | 19 | 1012.0 |
| 20260506224320 | 30 | 114 | 4.8 | 16.1 | 0.00 | 0.00 | 0.00 | 19 | 1012.1 |
| 20260506223843 | 30 | 97 | 6.4 | 16.1 | 0.00 | 0.00 | 0.00 | 19 | 1012.1 |
| 20260506223334 | 30 | 109 | 4.8 | 11.3 | 0.00 | 0.00 | 0.00 | 19 | 1012.2 |
| 20260506222820 | 30 | 200 | 6.4 | 9.7 | 0.00 | 0.00 | 0.00 | 19 | 1012.2 |
| 20260506222332 | 30 | 113 | 4.8 | 20.9 | 0.00 | 0.00 | 0.00 | 19 | 1012.3 |
| 20260506221846 | 30 | 132 | 4.8 | 20.9 | 0.00 | 0.00 | 0.00 | 19 | 1012.4 |
| 20260506221325 | 30 | 108 | 11.3 | 20.9 | 0.00 | 0.00 | 0.00 | 19 | 1012.4 |
| 20260506220845 | 30 | 96 | 8.0 | 16.1 | 0.00 | 0.00 | 0.00 | 19 | 1012.5 |
| 20260506220333 | 29 | 108 | 8.0 | 12.9 | 0.00 | 0.00 | 0.00 | 20 | 1012.6 |
| 20260506215849 | 30 | 95 | 8.0 | 14.5 | 0.00 | 0.00 | 0.00 | 19 | 1012.7 |
| 20260506215324 | 30 | 52 | 4.8 | 14.5 | 0.00 | 0.00 | 0.00 | 19 | 1012.7 |
| 20260506214850 | 30 | 128 | 8.0 | 17.7 | 0.00 | 0.00 | 0.00 | 19 | 1012.8 |
| 20260506214319 | 30 | 72 | 9.7 | 17.7 | 0.00 | 0.00 | 0.00 | 19 | 1012.9 |
| 20260506213850 | 30 | 95 | 4.8 | 16.1 | 0.00 | 0.00 | 0.00 | 19 | 1012.9 |
| 20260506213326 | 30 | 175 | 4.8 | 12.9 | 0.00 | 0.00 | 0.00 | 19 | 1013.0 |
| 20260506212839 | 30 | 104 | 3.2 | 17.7 | 0.00 | 0.00 | 0.00 | 19 | 1013.1 |
| 20260506212346 | 29 | 82 | 4.8 | 17.7 | 0.00 | 0.00 | 0.00 | 19 | 1013.2 |
| 20260506211842 | 29 | 96 | 9.7 | 17.7 | 0.00 | 0.00 | 0.00 | 20 | 1013.1 |
| 20260506211327 | 29 | 87 | 8.0 | 16.1 | 0.00 | 0.00 | 0.00 | 20 | 1013.2 |
| 20260506210826 | 29 | 122 | 4.8 | 14.5 | 0.00 | 0.00 | 0.00 | 20 | 1013.3 |
| 20260506210332 | 29 | 128 | 8.0 | 12.9 | 0.00 | 0.00 | 0.00 | 20 | 1013.3 |
| 20260506205827 | 29 | 96 | 3.2 | 12.9 | 0.00 | 0.00 | 0.00 | 20 | 1013.4 |
| 20260506205330 | 28 | 148 | 3.2 | 14.5 | 0.00 | 0.00 | 0.00 | 20 | 1013.4 |
| 20260506204823 | 29 | 99 | 9.7 | 14.5 | 0.00 | 0.00 | 0.00 | 20 | 1013.5 |
| 20260506204329 | 29 | 166 | 6.4 | 11.3 | 0.00 | 0.00 | 0.00 | 19 | 1013.5 |
| 20260506203824 | 28 | 155 | 3.2 | 14.5 | 0.00 | 0.00 | 0.00 | 20 | 1013.6 |
| 20260506203330 | 28 | 109 | 6.4 | 14.5 | 0.00 | 0.00 | 0.00 | 20 | 1013.7 |
| 20260506202820 | 28 | 88 | 8.0 | 14.5 | 0.00 | 0.00 | 0.00 | 20 | 1013.7 |
| 20260506202331 | 28 | 197 | 1.6 | 12.9 | 0.00 | 0.00 | 0.00 | 21 | 1013.8 |
| 20260506201819 | 28 | 187 | 9.7 | 12.9 | 0.00 | 0.00 | 0.00 | 20 | 1013.9 |
| 20260506201321 | 28 | 203 | 6.4 | 17.7 | 0.00 | 0.00 | 0.00 | 20 | 1014.0 |
| 20260506200826 | 28 | 172 | 8.0 | 17.7 | 0.00 | 0.00 | 0.00 | 21 | 1014.1 |
| 20260506200346 | 28 | 100 | 1.6 | 14.5 | 0.00 | 0.00 | 0.00 | 21 | 1014.1 |
| 20260506195830 | 28 | 257 | 6.4 | 14.5 | 0.00 | 0.00 | 0.00 | 20 | 1014.3 |
| 20260506195329 | 28 | 127 | 8.0 | 12.9 | 0.00 | 0.00 | 0.00 | 20 | 1014.3 |
| 20260506194831 | 28 | 92 | 6.4 | 16.1 | 0.00 | 0.00 | 0.00 | 21 | 1014.4 |
| 20260506194332 | 28 | 56 | 8.0 | 16.1 | 0.00 | 0.00 | 0.00 | 21 | 1014.3 |
| 20260506193816 | 28 | 90 | 4.8 | 16.1 | 0.00 | 0.00 | 0.00 | 21 | 1014.5 |
| 20260506193359 | 28 | 136 | 4.8 | 16.1 | 0.00 | 0.00 | 0.00 | 22 | 1014.5 |
| 20260506192823 | 27 | 232 | 4.8 | 9.7 | 0.00 | 0.00 | 0.00 | 22 | 1014.5 |
| 20260506192328 | 27 | 86 | 4.8 | 16.1 | 0.00 | 0.00 | 0.00 | 23 | 1014.6 |
| 20260506191847 | 27 | 119 | 6.4 | 16.1 | 0.00 | 0.00 | 0.00 | 23 | 1014.6 |
| 20260506191328 | 27 | 59 | 8.0 | 14.5 | 0.00 | 0.00 | 0.00 | 23 | 1014.6 |
| 20260506190816 | 27 | 68 | 6.4 | 14.5 | 0.00 | 0.00 | 0.00 | 23 | 1014.6 |
| 20260506190324 | 27 | 176 | 1.6 | 12.9 | 0.00 | 0.00 | 0.00 | 24 | 1014.7 |
| 20260506185821 | 27 | 184 | 4.8 | 12.9 | 0.00 | 0.00 | 0.00 | 24 | 1014.8 |
| 20260506185349 | 27 | 114 | 4.8 | 12.9 | 0.00 | 0.00 | 0.00 | 25 | 1014.8 |
| 20260506184852 | 27 | 145 | 4.8 | 11.3 | 0.00 | 0.00 | 0.00 | 25 | 1014.8 |
| 20260506184332 | 26 | 72 | 3.2 | 12.9 | 0.00 | 0.00 | 0.00 | 25 | 1014.9 |
| 20260506183832 | 26 | 192 | 4.8 | 12.9 | 0.00 | 0.00 | 0.00 | 26 | 1015.0 |
| 20260506183331 | 26 | 83 | 1.6 | 12.9 | 0.00 | 0.00 | 0.00 | 26 | 1014.9 |
| 20260506182838 | 26 | 184 | 6.4 | 12.9 | 0.00 | 0.00 | 0.00 | 26 | 1015.0 |
| 20260506182350 | 26 | 83 | 4.8 | 11.3 | 0.00 | 0.00 | 0.00 | 26 | 1015.1 |
| 20260506181854 | 26 | 79 | 6.4 | 11.3 | 0.00 | 0.00 | 0.00 | 26 | 1015.1 |
| 20260506181319 | 26 | 123 | 4.8 | 11.3 | 0.00 | 0.00 | 0.00 | 27 | 1015.1 |
| 20260506180836 | 26 | 94 | 6.4 | 11.3 | 0.00 | 0.00 | 0.00 | 27 | 1015.1 |
| 20260506180330 | 25 | 105 | 4.8 | 11.3 | 0.00 | 0.00 | 0.00 | 28 | 1015.1 |
| 20260506175844 | 25 | 227 | 4.8 | 8.0 | 0.00 | 0.00 | 0.00 | 28 | 1015.2 |
| 20260506175333 | 25 | 117 | 1.6 | 11.3 | 0.00 | 0.00 | 0.00 | 28 | 1015.2 |
| 20260506174835 | 25 | 167 | 4.8 | 11.3 | 0.00 | 0.00 | 0.00 | 28 | 1015.2 |
| 20260506174320 | 25 | 96 | 3.2 | 11.3 | 0.00 | 0.00 | 0.00 | 29 | 1015.2 |
| 20260506173821 | 24 | 53 | 3.2 | 9.7 | 0.00 | 0.00 | 0.00 | 29 | 1015.2 |
| 20260506173349 | 25 | 172 | 4.8 | 8.0 | 0.00 | 0.00 | 0.00 | 29 | 1015.3 |
| 20260506172853 | 25 | 113 | 3.2 | 9.7 | 0.00 | 0.00 | 0.00 | 29 | 1015.3 |
| 20260506172327 | 24 | 100 | 4.8 | 9.7 | 0.00 | 0.00 | 0.00 | 29 | 1015.3 |
| 20260506171820 | 24 | 80 | 4.8 | 11.3 | 0.00 | 0.00 | 0.00 | 30 | 1015.3 |
| 20260506171338 | 23 | 69 | 4.8 | 11.3 | 0.00 | 0.00 | 0.00 | 30 | 1015.3 |
| 20260506170823 | 23 | 151 | 3.2 | 11.3 | 0.00 | 0.00 | 0.00 | 31 | 1015.3 |
| 20260506170353 | 23 | 142 | 3.2 | 8.0 | 0.00 | 0.00 | 0.00 | 31 | 1015.3 |
| 20260506165821 | 23 | 184 | 3.2 | 9.7 | 0.00 | 0.00 | 0.00 | 31 | 1015.3 |
| 20260506165323 | 23 | 161 | 1.6 | 8.0 | 0.00 | 0.00 | 0.00 | 32 | 1015.3 |
| 20260506164845 | 22 | 135 | 3.2 | 8.0 | 0.00 | 0.00 | 0.00 | 33 | 1015.2 |
| 20260506164332 | 22 | 258 | 3.2 | 8.0 | 0.00 | 0.00 | 0.00 | 34 | 1015.3 |
| 20260506163911 | 22 | 115 | 3.2 | 8.0 | 0.00 | 0.00 | 0.00 | 35 | 1015.2 |
| 20260506163322 | 22 | 272 | 3.2 | 8.0 | 0.00 | 0.00 | 0.00 | 35 | 1015.2 |
| 20260506162911 | 22 | 214 | 4.8 | 8.0 | 0.00 | 0.00 | 0.00 | 35 | 1015.2 |
| 20260506162329 | 21 | 192 | 1.6 | 6.4 | 0.00 | 0.00 | 0.00 | 35 | 1015.1 |
| 20260506161835 | 21 | 208 | 3.2 | 6.4 | 0.00 | 0.00 | 0.00 | 35 | 1015.1 |
| 20260506161329 | 21 | 159 | 1.6 | 6.4 | 0.00 | 0.00 | 0.00 | 36 | 1015.1 |
| 20260506160838 | 21 | 121 | 3.2 | 6.4 | 0.00 | 0.00 | 0.00 | 37 | 1015.1 |
| 20260506160326 | 21 | 202 | 3.2 | 6.4 | 0.00 | 0.00 | 0.00 | 37 | 1015.1 |
| 20260506155829 | 21 | 177 | 1.6 | 6.4 | 0.00 | 0.00 | 0.00 | 38 | 1015.1 |
| 20260506155322 | 20 | 134 | 3.2 | 6.4 | 0.00 | 0.00 | 0.00 | 38 | 1015.1 |
| 20260506154820 | 20 | 166 | 0.0 | 6.4 | 0.00 | 0.00 | 0.00 | 39 | 1015.1 |
| 20260506154332 | 20 | 217 | 0.0 | 6.4 | 0.00 | 0.00 | 0.00 | 39 | 1015.1 |
| 20260506153824 | 20 | 227 | 3.2 | 6.4 | 0.00 | 0.00 | 0.00 | 39 | 1015.1 |
| 20260506153331 | 20 | 160 | 0.0 | 4.8 | 0.00 | 0.00 | 0.00 | 39 | 1015.0 |
| 20260506152844 | 20 | 160 | 0.0 | 6.4 | 0.00 | 0.00 | 0.00 | 40 | 1015.0 |
| 20260506152328 | 20 | 160 | 1.6 | 6.4 | 0.00 | 0.00 | 0.00 | 40 | 1015.0 |
| 20260506151829 | 20 | 190 | 3.2 | 6.4 | 0.00 | 0.00 | 0.00 | 40 | 1015.1 |
| 20260506151355 | 19 | 233 | 0.0 | 3.2 | 0.00 | 0.00 | 0.00 | 42 | 1015.1 |
| 20260506150830 | 18 | 233 | 0.0 | 3.2 | 0.00 | 0.00 | 0.00 | 43 | 1015.1 |
| 20260506150406 | 18 | 233 | 1.6 | 3.2 | 0.00 | 0.00 | 0.00 | 43 | 1015.1 |
| 20260506145832 | 18 | 233 | 0.0 | 0.0 | 0.00 | 0.00 | 0.00 | 43 | 1015.1 |
| 20260506145331 | 19 | 233 | 0.0 | 0.0 | 0.00 | 0.00 | 0.00 | 42 | 1015.1 |
| 20260506144833 | 19 | 233 | 0.0 | 0.0 | 0.00 | 0.00 | 0.00 | 43 | 1015.1 |
| 20260506144345 | 18 | 233 | 0.0 | 0.0 | 0.00 | 0.00 | 0.00 | 44 | 1015.1 |
| 20260506143843 | 18 | 233 | 0.0 | 0.0 | 0.00 | 0.00 | 0.00 | 46 | 1015.1 |
| 20260506143330 | 17 | 233 | 0.0 | 3.2 | 0.00 | 0.00 | 0.00 | 47 | 1015.0 |
| 20260506142829 | 17 | 233 | 1.6 | 3.2 | 0.00 | 0.00 | 0.00 | 48 | 1015.0 |
| 20260506142322 | 16 | 233 | 0.0 | 1.6 | 0.00 | 0.00 | 0.00 | 50 | 1015.0 |
| 20260506141841 | 16 | 233 | 0.0 | 0.0 | 0.00 | 0.00 | 0.00 | 51 | 1014.9 |
| 20260506141348 | 15 | 233 | 0.0 | 0.0 | 0.00 | 0.00 | 0.00 | 54 | 1014.8 |
| 20260506140826 | 14 | 233 | 0.0 | 0.0 | 0.00 | 0.00 | 0.00 | 56 | 1014.8 |
| 20260506140334 | 13 | 233 | 0.0 | 0.0 | 0.00 | 0.00 | 0.00 | 58 | 1014.7 |
| 20260506135827 | 13 | 233 | 0.0 | 1.6 | 0.00 | 0.00 | 0.00 | 60 | 1014.7 |
| 20260506135334 | 12 | 233 | 0.0 | 1.6 | 0.00 | 0.00 | 0.00 | 61 | 1014.6 |
| 20260506134826 | 12 | 233 | 0.0 | 1.6 | 0.00 | 0.00 | 0.00 | 62 | 1014.6 |
| 20260506134342 | 11 | 233 | 0.0 | 1.6 | 0.00 | 0.00 | 0.00 | 64 | 1014.6 |
| 20260506133841 | 11 | 233 | 0.0 | 0.0 | 0.00 | 0.00 | 0.00 | 64 | 1014.5 |
| 20260506133321 | 11 | 233 | 0.0 | 0.0 | 0.00 | 0.00 | 0.00 | 65 | 1014.5 |
| 20260506132849 | 10 | 233 | 0.0 | 0.0 | 0.00 | 0.00 | 0.00 | 65 | 1014.5 |
| 20260506132326 | 10 | 233 | 0.0 | 0.0 | 0.00 | 0.00 | 0.00 | 66 | 1014.4 |
| 20260506131820 | 10 | 233 | 0.0 | 0.0 | 0.00 | 0.00 | 0.00 | 67 | 1014.3 |
| 20260506131325 | 10 | 233 | 0.0 | 0.0 | 0.00 | 0.00 | 0.00 | 68 | 1014.3 |
| 20260506130824 | 10 | 233 | 0.0 | 0.0 | 0.00 | 0.00 | 0.00 | 67 | 1014.2 |
| 20260506130341 | 10 | 233 | 0.0 | 0.0 | 0.00 | 0.00 | 0.00 | 67 | 1014.1 |
| 20260506125818 | 10 | 233 | 0.0 | 0.0 | 0.00 | 0.00 | 0.00 | 66 | 1014.0 |
| 20260506125319 | 10 | 233 | 0.0 | 0.0 | 0.00 | 0.00 | 0.00 | 66 | 1014.0 |
| 20260506124853 | 10 | 233 | 0.0 | 0.0 | 0.00 | 0.00 | 0.00 | 65 | 1013.9 |
| 20260506124342 | 10 | 233 | 0.0 | 0.0 | 0.00 | 0.00 | 0.00 | 65 | 1013.9 |
| 20260506123858 | 10 | 233 | 0.0 | 0.0 | 0.00 | 0.00 | 0.00 | 65 | 1013.8 |
| 20260506123321 | 10 | 233 | 0.0 | 0.0 | 0.00 | 0.00 | 0.00 | 64 | 1013.7 |
| 20260506122840 | 10 | 233 | 0.0 | 1.6 | 0.00 | 0.00 | 0.00 | 63 | 1013.7 |
| 20260506122337 | 10 | 233 | 0.0 | 4.8 | 0.00 | 0.00 | 0.00 | 63 | 1013.7 |
| 20260506121833 | 11 | 233 | 1.6 | 4.8 | 0.00 | 0.00 | 0.00 | 62 | 1013.7 |
| 20260506121319 | 11 | 233 | 1.6 | 6.4 | 0.00 | 0.00 | 0.00 | 62 | 1013.7 |
| 20260506120821 | 11 | 233 | 3.2 | 6.4 | 0.00 | 0.00 | 0.00 | 62 | 1013.7 |
| 20260506120341 | 11 | 233 | 4.8 | 6.4 | 0.00 | 0.00 | 0.00 | 64 | 1013.5 |
| 20260506115837 | 10 | 179 | 0.0 | 0.0 | 0.00 | 0.00 | 0.00 | 64 | 1013.5 |
| 20260506115318 | 10 | 179 | 0.0 | 0.0 | 0.00 | 0.00 | 0.00 | 65 | 1013.5 |
| 20260506114829 | 10 | 179 | 0.0 | 0.0 | 0.00 | 0.00 | 0.00 | 65 | 1013.5 |
| 20260506114403 | 10 | 179 | 0.0 | 1.6 | 0.00 | 0.00 | 0.00 | 65 | 1013.5 |
| 20260506113852 | 10 | 179 | 0.0 | 3.2 | 0.00 | 0.00 | 0.00 | 64 | 1013.5 |
| 20260506113337 | 10 | 179 | 1.6 | 3.2 | 0.00 | 0.00 | 0.00 | 65 | 1013.5 |
| 20260506112820 | 10 | 179 | 1.6 | 3.2 | 0.00 | 0.00 | 0.00 | 64 | 1013.5 |
| 20260506111829 | 11 | 179 | 1.6 | 4.8 | 0.00 | 0.00 | 0.00 | 64 | 1013.4 |
| 20260506111337 | 11 | 250 | 0.0 | 0.0 | 0.00 | 0.00 | 0.00 | 63 | 1013.3 |
| 20260506110822 | 11 | 250 | 0.0 | 1.6 | 0.00 | 0.00 | 0.00 | 63 | 1013.4 |
| 20260506110323 | 11 | 250 | 0.0 | 4.8 | 0.00 | 0.00 | 0.00 | 64 | 1013.4 |
| 20260506105827 | 11 | 250 | 0.0 | 4.8 | 0.00 | 0.00 | 0.00 | 64 | 1013.3 |
| 20260506105318 | 11 | 250 | 3.2 | 4.8 | 0.00 | 0.00 | 0.00 | 64 | 1013.3 |
| 20260506104830 | 11 | 250 | 3.2 | 4.8 | 0.00 | 0.00 | 0.00 | 63 | 1013.4 |
| 20260506104334 | 11 | 250 | 4.8 | 4.8 | 0.00 | 0.00 | 0.00 | 64 | 1013.3 |
| 20260506103914 | 11 | 250 | 0.0 | 3.2 | 0.00 | 0.00 | 0.00 | 63 | 1013.3 |
| 20260506103335 | 11 | 250 | 0.0 | 3.2 | 0.00 | 0.00 | 0.00 | 63 | 1013.3 |
| 20260506102833 | 11 | 250 | 1.6 | 3.2 | 0.00 | 0.00 | 0.00 | 63 | 1013.3 |
| 20260506102328 | 11 | 250 | 1.6 | 3.2 | 0.00 | 0.00 | 0.00 | 63 | 1013.3 |
| 20260506101829 | 11 | 250 | 1.6 | 4.8 | 0.00 | 0.00 | 0.00 | 62 | 1013.2 |
| 20260506101336 | 11 | 250 | 3.2 | 4.8 | 0.00 | 0.00 | 0.00 | 63 | 1013.3 |
| 20260506100839 | 11 | 250 | 1.6 | 3.2 | 0.00 | 0.00 | 0.00 | 63 | 1013.2 |
| 20260506100354 | 11 | 250 | 0.0 | 3.2 | 0.00 | 0.00 | 0.00 | 63 | 1013.2 |